Harvard, Illinois, United States (60033)
Lat: 42.42N, Lon: 88.61W
Wx Zone: ILZ005
Local Info
Past Weather Observations for Today

NOTE: This archive is for the closest National Weather Service station to Harvard. Information may differ from the station used for current weather conditions.

Click here for Long-term Archive

Time Weather Temperature Dewpoint Humidity Pressure Winds Precip Visibility
07:35
Clear
64°F / 18°C 64°F / 18°C 100% 29.89 in
(1012 mb)
Calm - 10SM
07:15
Clear
63°F / 17°C 63°F / 17°C 100% 29.89 in
(1012 mb)
Calm - 10SM
06:55
Clear
61°F / 16°C 61°F / 16°C 100% 29.89 in
(1012 mb)
Calm - 10SM
06:35
Clear
Fog And Mist
59°F / 15°C 59°F / 15°C 100% 29.89 in
(1012 mb)
Calm - 2SM
06:15
Overcast
Fog
57°F / 14°C 57°F / 14°C 100% 29.89 in
(1012 mb)
Calm - 1/2SM
05:55
Overcast
Fog
55°F / 13°C 55°F / 13°C 100% 29.89 in
(1012 mb)
Calm - M1/4SM
05:35
Overcast
Fog
55°F / 13°C 55°F / 13°C 100% 29.89 in
(1012 mb)
Calm - M1/4SM
05:15
Overcast
Fog
57°F / 14°C 57°F / 14°C 100% 29.89 in
(1012 mb)
Calm - M1/4SM
04:55
Overcast
Fog
55°F / 13°C 55°F / 13°C 100% 29.89 in
(1012 mb)
Calm - 1/4SM
04:35
Overcast
Fog
57°F / 14°C 57°F / 14°C 100% 29.89 in
(1012 mb)
Calm - 1/4SM
04:15
Obscured
Fog
57°F / 14°C 57°F / 14°C 100% 29.89 in
(1012 mb)
Calm - 1/4SM
03:55
Obscured
Fog
59°F / 15°C 59°F / 15°C 100% 29.89 in
(1012 mb)
Calm - 1/4SM
03:35
Mostly Cloudy
Fog
59°F / 15°C 59°F / 15°C 100% 29.89 in
(1012 mb)
Calm - 1/4SM
03:15
Mostly Cloudy
Fog
59°F / 15°C 59°F / 15°C 100% 29.89 in
(1012 mb)
Calm - 1/2SM
02:55
Clear
Fog And Mist
59°F / 15°C 59°F / 15°C 100% 29.89 in
(1012 mb)
Calm - 2SM
02:35
Clear
61°F / 16°C 61°F / 16°C 100% 29.89 in
(1012 mb)
SW 3.5 mph
(SW 6 kph)
- 7SM
02:15
Clear
Fog And Mist
59°F / 15°C 59°F / 15°C 100% 29.89 in
(1012 mb)
SW 3.5 mph
(SW 6 kph)
- 5SM
01:55
Clear
Fog And Mist
59°F / 15°C 59°F / 15°C 100% 29.86 in
(1011 mb)
SW 4.6 mph
(SW 7 kph)
- 5SM
01:35
Clear
Fog And Mist
61°F / 16°C 61°F / 16°C 100% 29.86 in
(1011 mb)
Calm - 4SM
01:15
Clear
Fog And Mist
61°F / 16°C 61°F / 16°C 100% 29.86 in
(1011 mb)
Calm - 2SM
00:55
Clear
Fog And Mist
61°F / 16°C 61°F / 16°C 100% 29.86 in
(1011 mb)
Calm - 5SM
00:35
Clear
63°F / 17°C 63°F / 17°C 100% 29.86 in
(1011 mb)
Calm - 10SM
00:15
Clear
63°F / 17°C 63°F / 17°C 100% 29.86 in
(1011 mb)
Calm - 10SM
Time Weather Temperature Dewpoint Humidity Pressure Winds Precip Visibility


Weather for websites

WeatherForYou.com, LLC is not responsible for any damages or problems caused by this service. Current weather conditions are obtained from the closest station including government and personal stations which may have varying degrees of accuracy. Weather forecasts are derived from the NOAA NDFD. Like all things, this site belongs to Jesus Christ... He just trusts me to maintain it. If you have any questions or comments email webmaster@weatherforyou.com

Copyright © 2014, WeatherForYou.com LLC. All rights reserved.